This is the latest recevied weather packets stored in our database for station/object PY5KT-13. If no packets are shown the sender has not sent any weather packets the latest 10 day(s).
| Time | Temp. | Humidity | Pressure | Rain* | Wind** | Luminosity | Snow |
|---|---|---|---|---|---|---|---|
| 1778078610 | 27.78° C | 54% | 1024.1 hPa | 0 mm | - | 524 W/m² | - |
| 1778078308 | 28.33° C | 54% | 1024.1 hPa | 0 mm | - | 476 W/m² | - |
| 1778078006 | 27.78° C | 54% | 1024.2 hPa | 0 mm | - | 549 W/m² | - |
| 1778077704 | 27.22° C | 56% | 1024.3 hPa | 0 mm | - | 508 W/m² | - |
| 1778077403 | 26.67° C | 57% | 1024.3 hPa | 0 mm | - | 477 W/m² | - |
| 1778077101 | 27.78° C | 53% | 1024.4 hPa | 0 mm | - | 447 W/m² | - |
| 1778076799 | 27.78° C | 54% | 1024.4 hPa | 0 mm | - | 511 W/m² | - |
| 1778076498 | 27.78° C | 55% | 1024.5 hPa | 0 mm | - | 577 W/m² | - |
| 1778076196 | 26.67° C | 58% | 1024.5 hPa | 0 mm | - | 556 W/m² | - |
| 1778075894 | 26.67° C | 57% | 1024.6 hPa | 0 mm | - | 564 W/m² | - |
| 1778075593 | 27.22° C | 55% | 1024.7 hPa | 0 mm | - | 561 W/m² | - |
| 1778075291 | 27.22° C | 57% | 1024.7 hPa | 0 mm | - | 568 W/m² | - |
| 1778074989 | 27.22° C | 58% | 1024.8 hPa | 0 mm | - | 486 W/m² | - |
| 1778074686 | 27.22° C | 59% | 1024.7 hPa | 0 mm | - | 474 W/m² | - |
| 1778074385 | 26.67° C | 58% | 1024.8 hPa | 0 mm | - | 475 W/m² | - |
| 1778074083 | 27.78° C | 58% | 1024.9 hPa | 0 mm | - | 463 W/m² | - |
| 1778073780 | 26.67° C | 63% | 1024.9 hPa | 0 mm | - | 455 W/m² | - |
| 1778073478 | 26.67° C | 64% | 1024.9 hPa | 0 mm | - | 444 W/m² | - |
| 1778073176 | 26.67° C | 65% | 1025 hPa | 0 mm | - | 419 W/m² | - |
| 1778072874 | 27.22° C | 65% | 1025.1 hPa | 0 mm | - | 442 W/m² | - |
| 1778072572 | 26.67° C | 67% | 1025.1 hPa | 0 mm | - | 436 W/m² | - |
| 1778072270 | 25.56° C | 72% | 1025.2 hPa | 0 mm | - | 431 W/m² | - |
| 1778071968 | 26.67° C | 66% | 1025.2 hPa | 0 mm | - | 400 W/m² | - |
| 1778071666 | 26.11° C | 69% | 1025.1 hPa | 0 mm | - | 404 W/m² | - |
| 1778071364 | 25.56° C | 71% | 1025.1 hPa | 0 mm | - | 408 W/m² | - |
* Rain latest hour (hover to see other rain measurements)
** Current wind speed in m/s (hover to see current wind gust speed)